Theta_e
355 355 358 357 356 352 350 353 350 348 347 347 348 340 352 343 339 342 346 343 347 347 348 353 353 348 345 346 342 345 351 347 347 347 348 348 347 348 347 349 345 341 344 341 339 339 343 343 339 339 338 334 333 332 331 330 331 332 338 337 333 334 344 348 340 337 340 341 331 330 332 333 331 334 332 332 335 337 342 338 340 339 339 339 342
357 359 358 357 355 351 348 351 354 355 349 353 341 339 342 344 346 345 341 348 352 345 347 343 345 345 344 344 347 349 350 352 346 343 345 347 345 339 338 342 343 342 345 344 341 336 339 339 338 335 335 333 332 332 332 332 331 329 328 330 331 333 339 333 335 334 329 338 335 334 331 333 329 332 340 336 336 339 335 335 335 336 336 337 338
359 359 356 356 355 354 354 352 350 349 351 347 339 341 343 345 346 344 346 346 349 347 345 344 346 347 347 350 349 344 348 346 345 348 346 345 341 339 340 340 340 337 335 337 335 338 336 337 334 334 332 332 331 332 332 330 330 329 329 329 328 328 331 335 336 331 329 333 339 330 330 335 338 340 341 339 342 340 336 335 334 337 338 337 337
357 357 356 353 352 351 352 351 349 351 351 351 347 347 344 350 350 345 348 347 346 346 347 347 349 353 348 348 344 349 350 346 348 345 344 343 341 340 339 339 336 334 334 334 334 337 338 335 332 333 334 333 333 331 331 330 330 331 330 331 330 329 329 330 335 333 333 331 340 334 337 336 342 341 342 341 339 338 338 337 337 336 336 337 336
355 356 355 352 352 352 351 353 352 352 350 347 345 352 347 350 352 346 346 347 354 349 352 354 353 349 344 343 345 345 342 345 344 343 342 339 338 338 339 338 335 334 333 335 336 336 337 334 333 334 334 331 331 330 330 332 333 333 331 332 332 332 331 333 333 335 333 331 332 336 337 336 338 340 341 337 338 339 340 338 338 337 336 335 337
356 353 350 349 351 351 351 352 350 349 347 345 344 350 349 353 353 354 350 350 350 351 353 350 351 350 346 348 347 345 348 344 345 340 339 339 338 336 335 336 334 334 334 336 337 339 338 335 334 336 332 331 329 330 333 333 333 332 331 331 332 331 332 332 334 334 333 332 332 331 335 334 335 340 342 340 336 334 334 335 336 337 337 335 335
352 350 348 348 352 352 352 350 355 349 349 353 352 356 356 355 354 356 354 353 351 352 350 350 352 349 349 344 344 345 344 343 343 342 340 339 339 336 335 335 335 334 335 337 336 338 339 338 337 336 335 333 332 332 331 331 331 330 332 331 331 330 330 331 331 331 331 329 330 331 331 335 335 333 337 340 338 336 334 334 334 337 338 337 337
352 351 349 348 353 353 352 353 356 357 356 358 357 355 358 357 357 356 355 353 352 353 347 346 346 346 348 347 347 348 346 342 341 341 341 339 339 338 338 336 336 335 334 335 335 336 338 337 338 338 338 340 339 333 331 330 332 330 330 331 331 330 329 329 329 329 328 327 326 328 331 331 333 336 338 337 335 336 338 336 333 333 335 337 338
353 353 353 353 354 357 357 357 359 358 357 357 357 357 356 356 355 353 349 350 351 352 349 347 347 344 340 342 343 341 340 338 336 338 341 339 341 337 336 335 334 334 334 333 334 338 339 340 335 335 338 336 338 336 335 334 334 333 334 335 334 331 330 329 329 328 327 326 326 328 327 327 330 331 331 332 332 331 335 335 333 335 335 335 336
354 353 353 354 356 358 358 357 356 357 356 357 356 355 354 353 349 344 345 348 348 348 350 347 346 344 344 344 341 339 340 339 337 336 337 339 339 338 337 336 335 334 334 334 334 336 339 338 338 335 335 335 335 335 334 335 336 332 333 334 332 332 331 329 328 327 326 324 323 323 322 323 324 326 327 330 332 334 332 334 331 334 335 334 336
355 354 353 357 358 358 357 356 357 355 356 357 355 353 351 353 350 347 348 346 346 348 348 346 345 345 341 344 343 339 338 338 338 340 336 338 338 337 334 332 333 333 331 332 334 336 334 336 334 332 336 334 336 335 336 335 335 334 335 335 334 331 329 328 326 326 325 324 324 324 323 323 325 327 327 327 328 329 331 333 333 333 331 329 327
356 356 356 357 356 356 356 356 355 354 354 354 354 352 353 349 347 346 347 347 346 348 344 344 345 344 342 343 343 338 338 342 338 340 337 336 335 335 331 328 329 331 331 333 332 332 333 332 333 334 334 335 334 334 336 334 334 334 334 335 334 335 335 333 329 326 326 324 324 325 324 324 324 326 326 327 328 329 330 330 330 330 329 328 328
356 356 357 356 357 357 356 356 354 354 354 353 353 354 351 350 346 347 343 345 345 346 346 345 345 340 338 344 339 337 337 340 336 339 337 336 336 332 329 330 329 329 332 333 332 333 335 335 333 332 331 334 335 332 334 335 336 336 335 335 334 334 333 335 336 334 332 328 326 325 324 325 325 327 329 328 330 327 327 327 329 329 329 328 329
357 356 357 357 356 357 356 354 354 352 353 350 350 351 349 349 348 346 347 347 346 345 344 344 343 344 338 337 343 341 338 338 337 338 335 334 334 333 330 330 331 329 332 333 333 333 332 331 330 329 330 331 333 336 335 335 335 334 334 333 332 333 333 335 334 334 333 329 327 325 328 330 328 329 331 332 328 326 327 326 327 326 326 326 329
356 356 355 355 356 355 355 354 351 354 352 354 346 348 349 348 347 344 348 347 346 346 343 340 343 344 342 341 339 333 335 336 335 333 331 330 328 334 324 327 327 328 329 328 329 329 330 330 331 331 332 332 337 333 333 332 331 331 331 331 331 331 332 331 330 330 330 329 328 327 327 329 328 329 330 331 331 330 330 327 326 326 327 328 328
356 357 355 356 355 355 353 351 352 352 352 352 352 350 349 347 344 348 349 348 347 343 345 343 341 341 343 340 338 336 332 332 332 331 327 326 331 321 321 322 322 322 324 326 328 330 331 331 330 330 328 329 330 330 331 330 327 327 327 327 328 328 329 331 330 331 331 330 328 327 327 328 328 327 328 327 328 328 329 329 328 327 325 322 321
356 357 355 355 355 355 353 352 351 350 349 350 351 350 345 347 348 348 347 345 345 341 343 340 345 342 342 340 336 337 334 330 327 327 325 325 329 322 320 321 322 322 323 325 327 328 328 329 329 328 328 331 325 323 326 329 325 324 324 324 325 325 325 328 329 329 329 327 325 326 326 325 325 325 325 326 328 328 327 324 322 324 322 320 321
356 356 356 356 353 355 356 354 350 350 348 347 347 345 345 345 348 347 344 349 348 346 345 343 344 342 341 337 330 332 336 332 325 324 321 325 326 322 324 322 322 324 325 327 329 329 330 333 333 332 334 326 323 322 322 325 322 322 322 322 321 322 323 325 325 326 328 327 327 327 327 327 327 327 328 327 328 329 324 320 323 324 321 322 319
357 356 355 356 355 355 354 350 350 350 346 348 346 345 348 347 351 354 352 346 345 347 339 341 339 340 340 338 331 332 331 332 323 322 322 323 327 329 329 327 326 327 326 325 327 328 330 333 335 334 330 325 320 321 320 323 321 321 321 320 320 320 322 324 323 322 323 322 323 324 325 326 326 326 328 329 329 330 328 326 326 324 322 322 322
359 358 358 357 356 354 349 347 350 350 348 347 347 348 349 347 348 349 352 343 339 340 342 337 337 336 339 339 335 335 335 335 330 321 321 322 325 330 332 327 324 324 324 324 324 327 329 330 332 328 323 322 320 319 319 320 321 322 322 320 319 319 323 322 322 321 321 321 321 323 324 325 325 326 326 326 328 330 331 329 327 327 324 323 323
358 357 357 355 353 352 349 352 350 349 349 349 348 348 351 346 350 345 344 343 342 341 340 338 336 335 338 339 335 339 333 336 343 319 320 321 323 327 328 326 324 323 322 323 323 323 325 327 330 331 326 321 318 315 314 315 319 322 322 321 321 323 324 321 321 323 321 321 322 323 323 324 324 325 325 324 325 327 331 331 330 329 327 324 323
358 357 356 353 352 352 351 352 351 348 348 349 348 346 346 346 342 344 344 341 339 338 333 336 338 339 341 336 338 337 336 331 334 325 318 317 318 325 326 325 326 324 323 323 322 323 325 328 329 330 323 319 316 313 311 313 316 320 322 318 319 320 323 323 323 322 322 322 321 321 322 322 322 323 324 325 326 328 328 330 330 330 330 329 327
353 352 352 351 351 350 350 349 349 346 345 347 346 344 347 345 343 342 339 337 335 335 331 333 338 335 338 344 344 341 337 336 335 335 323 318 318 319 320 323 322 326 323 321 322 324 326 328 329 328 317 312 310 310 311 312 319 321 316 316 317 319 322 322 323 323 323 322 322 322 322 323 322 323 324 325 327 329 331 331 331 331 331 331 332
352 351 350 350 349 350 349 348 347 345 347 346 344 343 342 340 341 339 342 339 338 339 337 334 338 332 334 339 344 342 337 343 332 334 331 321 318 315 315 315 317 322 324 323 324 325 325 325 325 314 309 307 308 310 312 315 319 314 313 314 316 320 322 323 323 323 324 323 322 322 322 323 324 324 325 327 329 330 330 330 330 331 331 331 331
349 348 347 345 343 341 344 347 346 345 343 342 341 340 336 340 338 342 334 339 341 341 332 336 334 334 333 328 331 331 331 331 334 329 327 322 317 315 315 315 317 318 323 323 325 325 320 312 310 310 311 310 311 312 315 319 316 316 315 316 324 324 325 325 324 324 323 322 323 324 324 325 325 326 329 330 331 331 330 330 331 332 332 332 331
348 345 341 341 343 341 340 338 339 342 339 338 338 340 335 337 337 341 341 335 331 328 328 324 326 325 327 326 326 325 327 332 328 323 319 318 316 315 316 318 321 323 324 323 322 318 315 314 313 313 316 318 324 325 326 328 326 325 323 325 327 328 328 327 326 325 323 323 323 323 324 325 326 328 330 330 328 327 328 328 328 328 329 328 327
345 344 345 338 338 341 335 334 335 334 334 333 330 329 335 329 328 331 325 320 320 324 321 322 321 317 320 321 321 324 324 326 322 316 315 315 314 316 316 318 320 321 321 321 321 319 319 318 318 315 314 316 317 319 320 323 325 328 330 331 330 329 329 329 328 327 326 324 325 325 325 326 327 328 327 327 327 328 330 329 328 327 328 327 326
339 339 336 333 334 329 328 329 329 324 323 321 320 320 322 323 323 323 315 312 314 312 312 316 313 312 311 314 318 318 315 317 317 316 315 316 315 315 315 317 317 317 317 318 316 315 315 317 319 323 325 326 330 330 330 331 331 329 327 326 326 327 328 329 328 328 328 327 326 327 326 326 325 325 325 325 326 327 329 329 328 327 328 327 325
341 334 331 330 334 337 325 323 322 324 324 328 327 330 325 318 329 321 318 324 318 313 312 310 313 310 309 315 313 310 311 311 314 313 316 309 311 310 311 312 312 313 314 310 309 312 315 319 321 325 327 324 323 323 324 324 324 325 325 325 325 325 325 324 323 323 324 324 323 323 323 323 323 324 324 324 325 326 328 327 328 326 327 326 323
332 329 328 325 325 324 323 321 324 327 325 326 324 323 326 320 322 325 322 327 320 309 313 320 316 315 311 310 315 311 310 314 312 303 302 301 301 302 302 301 300 304 305 305 309 312 317 320 323 322 322 322 322 322 322 322 323 323 323 324 324 323 323 324 324 324 324 324 323 322 322 322 321 322 322 322 323 324 325 325 324 325 324 323 322
336 325 322 322 325 327 325 322 324 329 327 321 324 326 320 324 303 305 323 324 313 303 303 304 308 312 325 315 318 313 313 309 304 302 301 300 300 299 299 298 298 298 300 307 312 315 318 321 321 322 322 322 321 321 322 322 322 321 321 321 322 322 322 322 322 322 322 322 322 322 322 321 321 321 321 321 321 322 323 324 325 324 323 323 322
330 325 322 326 333 332 323 328 327 325 331 334 332 334 330 325 322 309 301 312 309 302 302 301 302 305 307 313 322 319 318 309 303 300 300 300 300 299 298 298 298 298 300 303 309 317 322 321 321 321 322 322 321 322 322 320 320 319 319 319 318 320 320 319 319 320 321 320 319 320 321 321 320 320 320 321 321 321 321 322 322 322 323 323 322
326 323 328 329 330 332 327 328 329 330 327 329 328 333 331 325 327 327 324 303 302 304 303 301 300 299 300 299 298 301 301 300 299 299 299 299 299 299 298 298 299 299 302 317 322 321 322 322 321 321 321 321 320 319 320 318 318 318 317 317 317 318 319 320 319 320 319 318 317 316 317 318 317 317 318 318 317 317 318 319 321 321 321 321 322
333 332 330 328 333 334 331 330 328 332 332 330 329 332 330 328 328 328 328 327 327 316 301 299 299 300 299 298 298 298 298 298 299 299 299 300 299 299 297 304 301 300 305 323 325 321 321 321 321 321 320 320 319 319 319 318 318 318 317 318 318 318 317 318 318 317 316 316 315 315 316 315 315 314 314 314 314 315 315 316 316 316 316 318 319
331 330 330 329 331 330 327 330 329 332 328 328 327 328 328 330 330 327 327 323 323 327 320 328 311 298 313 313 305 300 298 299 300 299 300 300 300 298 302 324 325 323 326 324 323 322 321 321 319 319 319 318 318 318 318 318 318 317 317 317 317 316 316 316 316 316 315 315 314 314 314 314 314 314 313 312 312 312 313 314 315 315 316 317 318
325 324 326 325 329 329 329 331 333 331 334 333 334 326 328 327 323 324 323 325 324 322 322 329 325 315 303 298 299 300 300 302 302 302 302 301 299 299 322 323 321 322 322 322 322 322 322 320 319 319 319 319 319 319 318 318 318 317 317 317 316 315 315 315 315 314 315 313 313 314 313 313 313 313 313 313 313 313 313 314 314 315 317 318 319
324 323 324 328 328 327 330 330 332 335 329 330 333 330 327 326 325 323 326 328 326 325 327 328 324 328 324 322 323 312 306 305 305 303 301 300 299 314 324 324 322 322 322 321 322 321 320 320 320 320 320 319 320 320 320 319 318 317 317 316 316 315 314 314 314 314 313 312 312 312 312 312 312 312 312 311 312 312 313 314 314 315 317 317 317
329 326 326 330 330 331 332 335 329 326 332 331 337 337 326 328 328 326 325 326 324 324 323 324 319 318 315 319 323 322 320 312 309 312 312 313 321 325 325 324 324 323 322 322 322 321 320 320 320 320 320 320 320 320 319 319 318 317 315 315 315 314 315 314 314 313 313 312 312 312 312 312 312 312 312 312 311 311 312 313 313 313 314 316 316
325 327 328 327 324 327 326 328 329 327 326 326 324 327 324 320 322 323 327 321 326 321 326 324 322 319 319 321 322 321 321 320 321 321 324 324 326 326 325 324 324 323 323 322 322 321 320 319 321 321 321 321 321 321 320 319 317 315 315 314 313 313 313 312 312 312 312 311 311 311 311 311 312 312 312 311 311 311 311 312 313 313 313 314 315
323 323 323 325 324 326 329 327 325 327 325 324 321 324 322 322 323 323 322 320 322 322 322 321 322 322 325 324 320 319 318 320 321 323 324 324 324 325 325 324 324 323 323 322 321 321 321 320 321 321 320 321 320 320 319 317 316 315 315 314 312 312 312 312 311 311 311 311 311 311 311 311 311 312 312 312 312 312 312 313 314 314 314 314 315
324 325 325 326 326 327 326 324 322 324 325 323 323 321 322 325 325 323 323 321 320 319 322 322 322 324 323 319 310 308 319 321 323 324 324 325 325 325 325 324 323 324 323 322 322 322 322 321 320 320 321 320 320 319 318 316 315 314 313 313 312 312 312 311 311 311 311 311 311 311 311 311 312 312 311 312 314 314 314 314 314 314 315 316 316
325 326 327 326 326 326 326 322 322 327 329 327 325 319 321 322 324 320 324 321 318 317 319 319 323 323 315 306 305 303 316 324 326 325 324 325 325 325 326 324 325 327 325 323 323 323 322 321 321 321 320 319 319 318 317 315 314 313 312 312 311 311 311 310 310 311 310 310 310 310 311 312 313 314 314 315 314 314 314 314 314 315 315 315 316
331 330 331 330 328 325 323 321 329 326 323 321 321 318 322 325 323 321 322 321 318 316 319 318 320 323 324 312 316 310 324 324 325 326 325 325 325 326 323 323 324 325 326 325 324 324 323 321 321 321 320 319 320 318 316 314 314 313 312 312 311 311 310 310 310 310 310 310 310 311 312 312 314 314 315 316 316 316 315 315 315 316 316 317 317
329 327 329 327 327 325 327 326 323 323 321 324 322 324 320 323 322 324 319 319 317 316 315 314 318 321 322 321 322 322 324 324 325 324 325 325 326 325 324 324 325 326 326 326 325 326 324 322 321 322 320 319 320 319 317 316 315 313 312 311 310 311 309 309 309 308 308 309 310 311 312 314 316 317 318 320 320 319 318 317 317 317 318 320 321
330 328 325 325 327 327 323 335 321 326 323 322 323 325 324 322 319 319 315 314 316 316 314 315 318 318 319 324 325 323 324 325 325 324 325 324 324 324 324 325 325 326 326 325 326 326 325 323 323 321 318 319 320 319 317 316 316 314 312 311 309 309 308 308 308 308 308 309 311 312 314 317 318 320 320 320 321 320 320 320 320 319 317 317 316
327 325 326 324 323 325 325 323 324 326 323 318 319 318 318 320 322 319 316 316 315 313 314 317 319 319 320 323 322 322 324 325 324 324 324 324 323 323 324 324 325 326 326 326 326 326 325 325 323 319 318 319 319 319 318 317 315 314 313 312 311 309 308 308 308 308 309 311 312 314 317 319 319 320 321 320 320 319 318 318 318 317 315 315 314
332 328 324 324 320 320 322 326 325 320 321 318 318 318 318 320 319 319 320 318 315 315 315 318 318 318 320 323 322 323 324 324 324 323 324 326 326 325 324 325 325 325 325 326 327 326 325 325 322 319 318 320 319 319 318 316 315 313 313 311 310 308 307 306 308 311 313 314 315 319 319 318 318 318 318 319 318 317 316 316 316 315 314 313 312
328 322 323 328 325 321 321 322 321 319 320 318 317 316 316 317 318 317 317 316 315 315 316 318 319 320 321 322 322 322 323 324 324 324 325 325 325 325 326 326 325 324 325 325 326 327 327 325 323 320 319 319 319 318 317 315 314 313 312 311 308 304 303 303 311 312 313 316 319 319 318 318 317 317 317 316 316 317 316 315 315 315 314 314 313
326 325 323 322 320 320 318 317 318 318 318 317 319 318 316 317 316 316 316 316 314 315 318 319 318 320 323 323 322 322 323 323 324 324 325 325 327 327 326 326 326 325 325 325 325 326 327 325 323 321 319 319 319 318 317 316 314 313 312 309 305 301 302 302 306 309 307 319 318 318 318 317 316 316 315 315 314 314 315 315 315 314 313 313 312
326 327 325 322 318 315 322 321 321 320 319 318 318 318 318 319 316 316 316 314 314 316 319 319 319 322 322 321 321 321 321 322 323 324 324 325 325 326 325 325 325 324 324 324 325 326 325 324 323 322 319 318 318 318 317 316 315 314 312 308 302 301 301 303 304 302 310 318 319 318 317 316 315 315 314 314 314 313 313 313 313 313 312 311 311
329 325 324 323 321 321 321 321 320 319 321 324 319 318 317 319 316 315 316 315 314 318 319 319 321 321 323 322 322 321 322 324 325 325 324 324 325 324 324 324 324 324 325 326 325 324 325 323 322 321 320 318 316 315 315 314 313 312 307 304 301 299 299 301 307 303 302 306 317 316 316 315 314 314 313 313 312 312 312 312 311 311 310 310 310
Wind_Speed
7 5 5 6 7 7 7 5 5 4 3 5 2 5 1 4 7 9 8 8 5 4 4 5 3 4 5 9 9 5 5 5 5 4 5 5 5 4 4 4 6 5 4 6 5 5 4 3 5 5 6 7 6 7 7 8 8 6 3 3 4 4 1 2 2 3 2 1 5 6 6 6 6 5 8 7 5 6 9 8 8 8 9 9 7
7 6 5 6 7 6 7 4 2 2 3 1 5 5 7 6 4 7 7 5 3 5 6 5 6 7 7 6 5 3 4 3 4 5 4 4 5 5 8 7 6 5 4 4 6 6 6 6 6 8 7 7 7 10 10 10 9 8 8 5 4 4 3 5 3 2 4 2 3 3 5 5 8 4 2 6 6 6 8 8 8 7 7 7 7
6 5 5 5 5 6 4 4 3 3 2 3 5 7 6 7 6 6 5 4 2 3 4 7 6 6 6 5 4 5 4 4 4 3 5 6 7 8 7 7 6 7 7 6 6 6 7 5 6 6 8 9 9 8 9 10 8 8 9 7 7 6 4 4 4 5 5 3 2 5 4 3 3 2 4 4 4 5 6 8 8 6 6 7 7
6 5 5 6 6 5 4 3 2 2 2 6 10 9 7 4 3 3 3 6 6 6 6 6 6 5 3 4 5 3 4 4 4 5 5 5 7 7 7 6 7 7 7 7 7 5 5 5 7 7 7 7 7 7 7 7 9 7 10 9 8 10 7 6 6 6 5 5 2 3 3 5 3 3 4 4 5 5 4 5 5 7 7 8 8
6 6 6 6 5 5 5 3 3 1 4 3 7 4 4 3 4 6 6 6 3 5 5 5 3 4 4 4 3 4 6 4 4 5 7 7 7 8 8 7 8 8 8 7 8 6 6 6 7 7 7 7 8 8 8 11 10 9 9 8 8 9 9 8 7 6 6 7 7 5 5 6 4 4 4 6 5 5 4 5 5 6 7 7 6
6 6 6 6 5 6 5 4 3 3 2 4 5 5 5 6 7 6 6 3 5 5 5 6 5 3 5 3 4 4 3 3 5 6 5 5 5 6 6 6 7 7 8 6 5 5 5 5 5 5 7 7 8 7 7 8 8 9 10 9 9 9 9 10 8 7 7 6 7 8 5 6 5 3 3 5 6 7 5 5 6 5 6 7 7
6 6 7 7 5 5 5 4 3 4 4 4 4 5 8 6 7 5 5 7 5 4 4 2 1 3 3 3 4 3 2 2 6 4 3 3 3 4 5 6 7 6 6 7 6 5 4 4 4 4 4 5 6 6 7 8 7 9 7 8 8 9 9 8 8 9 8 8 7 7 6 5 5 6 6 6 6 6 6 5 6 6 7 7 8
6 6 6 7 4 5 4 4 4 5 4 4 5 6 6 7 6 7 6 5 4 5 5 5 5 4 3 3 3 3 3 4 4 3 2 2 3 3 3 5 6 6 7 8 7 5 5 5 4 5 4 3 2 5 5 5 4 6 7 6 5 6 7 7 7 6 7 7 7 7 6 7 7 5 5 5 6 5 4 3 6 6 7 7 7
5 5 6 5 4 4 4 4 4 4 4 4 4 4 6 7 7 6 4 5 5 6 4 4 3 4 5 4 3 3 5 4 3 2 2 2 2 3 4 4 6 6 6 8 7 5 5 4 4 5 7 12 14 11 10 9 4 4 5 3 3 4 5 5 5 6 6 6 7 7 7 7 6 6 6 5 5 5 4 5 6 5 6 7 7
5 6 6 5 5 4 3 3 4 4 3 4 4 5 5 6 7 3 4 3 3 4 4 3 3 2 2 2 2 4 2 5 5 7 6 3 3 4 4 4 5 5 5 6 6 5 4 4 4 12 13 13 13 13 13 13 13 9 5 4 5 5 5 5 5 5 5 6 7 7 8 8 8 7 8 6 5 5 6 5 6 4 4 6 6
5 6 5 5 4 4 3 3 3 3 3 4 3 6 3 3 5 1 2 2 2 3 4 3 5 0 3 1 2 3 3 4 9 5 5 7 4 4 4 5 5 5 6 5 6 5 4 4 4 8 9 9 8 14 14 14 14 14 15 14 11 7 5 5 6 6 6 7 6 7 7 8 8 8 8 9 8 7 5 5 5 5 5 5 7
5 6 5 5 5 4 3 3 3 3 3 4 4 3 3 2 2 1 1 3 2 3 4 4 5 1 2 4 3 4 6 7 6 5 5 5 6 3 4 5 5 5 5 6 5 5 6 7 5 4 5 6 8 7 9 14 15 15 16 16 16 15 11 7 7 7 6 6 7 7 7 9 9 8 8 8 7 8 8 7 7 7 7 6 6
6 6 6 5 5 3 4 3 3 2 4 4 2 2 3 2 2 3 3 2 1 4 6 4 5 3 3 2 2 3 7 6 6 5 4 2 4 6 4 5 6 6 6 5 6 5 5 5 6 6 6 14 10 7 7 6 10 12 13 14 13 13 11 11 10 7 5 7 9 9 9 9 10 9 8 9 8 9 9 9 7 6 6 7 6
5 5 5 5 4 4 3 3 2 2 3 4 1 1 1 1 2 1 2 1 0 3 6 6 1 1 0 1 2 4 6 7 6 5 3 3 5 8 5 5 5 6 6 6 5 5 6 6 6 7 6 7 7 6 6 5 5 6 6 5 6 9 10 10 12 15 12 8 7 9 7 6 8 8 8 7 7 8 6 7 7 7 7 7 7
5 5 5 4 4 4 3 3 2 1 1 1 3 4 5 4 0 4 1 2 3 5 4 1 3 2 5 5 4 4 4 7 5 4 4 4 7 8 6 6 6 6 6 7 7 7 7 7 7 7 6 6 6 7 6 6 6 6 7 7 7 6 6 7 7 5 5 5 7 8 9 8 8 8 8 7 7 7 7 8 9 9 8 7 8
5 6 5 4 4 3 3 1 3 2 1 1 2 3 3 2 3 2 1 2 4 3 3 4 5 4 2 2 3 4 5 5 5 4 3 6 8 7 6 6 7 7 7 6 6 6 6 7 6 7 7 6 9 13 12 8 6 7 7 8 8 7 7 8 11 8 7 6 7 8 8 9 10 10 10 9 8 8 9 10 8 7 7 7 10
5 6 5 5 4 3 3 3 2 1 3 4 2 1 4 2 3 2 3 1 2 1 4 2 2 3 4 3 5 4 4 3 5 4 2 6 6 5 6 6 6 7 7 6 6 7 7 7 8 7 9 5 8 9 12 11 6 7 8 9 8 8 8 7 10 12 10 10 11 12 14 14 13 14 15 16 12 9 7 9 10 6 6 8 9
5 5 5 4 4 2 2 2 1 1 2 2 3 6 3 2 2 2 2 2 2 1 2 2 4 4 4 4 4 4 3 4 4 2 2 6 6 4 5 6 6 6 6 6 7 7 9 17 15 8 3 4 6 6 8 8 6 7 7 9 9 9 8 7 6 6 10 11 11 12 12 13 15 16 15 14 14 11 8 10 8 6 8 7 9
4 4 5 4 4 3 3 2 1 5 1 2 5 2 2 2 1 0 1 2 2 2 5 3 5 3 4 3 4 3 3 4 4 4 4 4 3 2 4 5 6 6 7 8 8 7 8 10 12 7 4 3 3 3 4 7 5 6 7 8 9 10 8 6 6 8 8 8 7 8 8 11 10 9 10 16 16 14 10 10 8 7 8 8 9
4 4 5 4 4 6 3 1 2 5 4 3 3 2 3 2 2 2 1 4 5 4 3 5 4 3 2 2 3 2 2 2 6 5 5 3 2 3 4 5 6 7 7 8 8 7 7 7 4 6 4 3 5 8 9 8 5 5 6 7 8 9 6 6 8 8 8 8 8 8 8 8 8 8 7 7 9 9 9 8 8 8 7 8 9
4 4 4 4 4 6 3 2 5 2 2 3 3 2 2 2 1 3 4 5 4 4 3 3 3 2 2 2 2 2 2 3 4 6 5 3 1 4 3 4 5 6 7 8 7 8 7 7 6 10 11 11 12 15 15 15 11 6 6 6 7 9 8 7 8 11 8 8 8 7 7 7 6 6 6 6 7 6 4 6 7 7 7 7 8
4 4 5 4 4 4 5 3 4 5 4 3 4 3 2 4 5 5 4 4 2 3 3 3 2 2 2 1 2 2 4 6 1 6 6 4 1 2 4 5 5 6 7 7 7 7 7 7 8 9 11 12 16 17 16 14 14 6 8 12 13 13 9 7 7 7 6 7 6 7 7 7 7 6 6 6 6 6 6 5 6 7 7 7 8
5 5 4 4 5 5 4 6 4 3 3 2 3 4 3 3 4 4 3 2 3 2 3 3 1 2 2 2 0 2 2 2 1 3 6 3 2 5 5 4 8 6 7 8 8 8 7 8 9 13 15 17 17 17 16 16 11 8 12 13 13 14 10 6 6 7 6 6 6 7 7 7 7 6 6 6 5 4 4 3 4 4 5 6 7
5 5 5 5 6 5 4 4 4 3 3 4 3 3 4 2 3 2 1 1 0 1 3 3 3 3 1 1 0 3 3 4 4 7 8 4 6 8 10 12 10 7 7 7 7 8 8 8 9 13 17 18 17 15 14 14 11 16 15 15 14 11 5 6 6 7 6 6 7 7 7 6 6 6 6 6 4 4 5 5 6 6 6 6 7
7 7 6 5 4 6 5 4 4 4 3 3 3 3 2 2 3 2 3 3 2 0 5 2 3 3 4 5 5 5 5 5 5 10 15 14 12 12 13 12 12 12 9 8 7 8 9 13 16 18 18 19 18 15 12 14 17 17 15 12 10 5 6 6 6 6 7 7 7 7 6 6 5 6 4 4 5 5 5 5 5 5 6 7 7
7 6 6 5 5 5 5 6 6 4 3 3 2 2 2 4 2 3 1 3 4 4 5 4 4 4 5 5 5 6 5 4 7 7 9 11 10 12 13 12 13 13 11 9 11 13 14 16 19 19 16 16 11 9 9 10 12 12 12 12 7 7 6 6 5 7 8 8 8 8 8 7 7 5 6 6 6 6 5 6 5 5 4 5 6
6 5 6 8 6 6 4 4 6 7 5 5 6 3 4 4 5 6 7 6 5 5 4 4 5 5 6 5 5 5 6 4 6 8 8 8 7 7 8 9 11 10 8 7 8 9 13 14 13 18 15 19 17 16 16 15 10 8 6 6 5 4 5 3 4 6 6 7 6 5 6 7 7 8 7 6 6 5 4 5 5 5 5 4 4
9 7 5 5 3 3 2 3 6 7 6 7 6 5 5 4 6 6 6 5 4 4 4 5 5 5 5 5 5 6 6 5 6 8 8 7 6 6 6 7 7 7 8 7 9 10 11 12 14 11 11 9 8 4 5 5 4 4 5 6 6 7 9 11 10 4 4 6 7 6 6 7 7 7 7 6 6 6 4 5 4 5 4 4 5
4 7 5 4 4 4 5 4 4 5 7 6 5 4 3 4 5 6 5 3 4 5 4 5 5 6 4 4 6 6 5 6 7 4 7 6 6 5 6 6 7 7 8 11 9 9 8 8 9 9 5 7 9 9 9 9 9 9 10 9 9 8 7 7 8 8 7 6 6 7 8 6 6 6 6 7 6 7 5 6 5 6 5 5 7
6 6 5 4 4 6 5 5 6 6 6 8 5 4 6 7 5 3 4 2 2 1 0 3 3 4 5 6 4 4 6 6 7 11 13 13 14 12 10 10 10 7 9 14 8 6 7 8 8 8 10 9 9 9 9 9 8 8 8 9 9 8 8 8 7 7 7 7 6 7 7 6 7 7 7 7 7 7 6 6 7 6 7 6 6
3 8 7 7 7 6 7 6 5 5 5 5 4 4 4 3 7 8 3 8 5 5 3 5 2 2 2 4 2 4 2 6 10 13 15 15 15 16 16 16 16 14 9 8 6 7 8 7 9 9 9 9 9 10 9 8 8 9 10 9 9 9 9 9 9 10 10 9 8 7 7 6 7 7 7 7 8 8 7 6 6 6 6 6 6
8 7 7 6 6 5 6 5 5 5 3 2 2 3 1 6 2 2 4 2 3 4 4 3 3 3 4 4 4 5 5 9 12 14 15 16 16 16 16 17 19 17 14 2 3 6 6 9 9 9 9 9 9 8 8 9 9 9 9 9 10 9 9 9 9 9 9 9 9 8 7 7 7 8 8 9 8 8 7 7 6 6 6 6 6
7 7 5 6 5 5 5 5 5 5 4 3 2 2 3 3 1 3 4 2 2 2 2 4 5 6 5 6 4 5 8 11 13 14 15 16 16 15 15 18 18 17 11 2 4 9 8 8 9 9 10 9 8 8 8 9 9 9 9 9 10 9 9 9 9 8 8 9 8 8 8 8 8 8 8 8 8 8 8 9 8 8 8 8 7
7 5 5 5 4 5 5 4 4 4 3 2 2 2 3 2 1 3 3 2 3 4 7 8 8 6 5 6 8 10 11 11 12 13 15 16 16 13 11 13 16 12 4 4 6 7 8 8 8 8 8 8 8 8 7 7 7 8 8 8 8 8 10 9 9 9 9 9 8 8 8 8 8 8 8 8 7 7 7 7 7 8 8 8 9
6 7 10 6 4 5 5 4 4 4 2 2 2 3 2 0 3 3 3 3 4 5 4 2 8 8 4 3 3 7 10 12 12 12 16 15 14 11 12 8 7 7 3 5 5 6 7 9 9 9 9 8 8 7 7 7 6 7 7 8 8 8 8 8 8 8 8 7 7 7 7 8 7 7 7 7 7 7 6 6 6 6 6 6 7
6 6 5 7 5 5 4 4 3 3 1 2 2 3 2 3 3 3 3 3 4 4 4 4 3 5 7 8 8 10 11 14 14 13 16 14 12 5 6 7 7 7 7 7 7 8 8 8 7 7 7 7 7 6 5 4 5 6 7 7 8 8 8 8 8 8 8 8 8 8 8 7 7 6 6 6 7 6 6 6 6 6 5 5 5
7 7 6 5 5 4 4 3 3 2 1 1 2 2 2 3 3 3 3 3 3 3 4 3 3 5 3 7 11 9 13 16 18 16 14 9 8 1 6 6 7 7 7 8 8 8 7 6 7 7 7 8 7 6 5 4 4 5 7 7 8 8 8 8 8 8 8 8 7 7 8 8 7 7 6 7 6 6 6 6 6 7 5 6 6
6 5 5 4 4 5 2 3 3 3 3 3 3 2 3 3 2 3 3 4 3 3 3 3 4 6 6 5 9 7 7 13 14 6 5 6 6 6 6 5 6 7 8 8 8 7 7 7 7 7 7 7 7 7 5 4 4 6 7 8 8 8 13 11 10 8 8 8 7 7 8 8 7 7 7 6 6 6 6 6 5 6 6 6 5
6 7 7 6 2 1 4 2 2 3 3 3 3 2 3 3 3 3 3 4 3 3 3 3 3 6 4 4 5 6 7 7 6 7 7 6 6 6 6 7 6 8 7 7 6 6 7 8 8 7 8 7 7 6 6 4 4 6 6 7 9 8 8 8 8 8 8 8 8 8 8 7 7 6 7 7 6 7 6 6 6 6 5 5 5
5 4 2 4 2 1 2 3 3 3 3 3 3 3 4 3 3 3 3 3 3 3 3 3 3 5 2 3 5 6 5 6 6 7 6 6 6 6 6 6 6 7 7 6 6 7 8 7 8 8 9 8 8 7 7 6 6 6 6 7 9 9 8 7 8 8 8 8 7 8 7 8 7 7 7 7 6 6 6 6 5 5 5 5 5
5 4 3 3 3 1 3 4 4 3 3 3 3 3 3 3 2 3 2 3 3 3 3 3 4 3 2 1 7 10 5 5 7 6 6 6 6 6 6 6 6 6 6 6 6 7 7 7 8 9 8 10 10 8 7 6 7 7 7 8 9 8 8 8 8 8 8 8 8 8 8 8 8 7 7 7 8 6 5 5 5 4 5 5 4
5 5 4 3 3 4 1 4 4 4 1 3 4 4 2 2 2 3 2 3 3 3 2 3 3 3 3 3 6 13 8 4 6 5 5 5 5 6 4 5 5 5 6 6 7 8 7 8 9 9 10 11 10 8 7 8 9 8 8 8 8 9 8 8 8 8 8 7 8 8 8 8 9 9 9 8 5 5 5 5 5 5 4 5 5
2 4 3 2 2 3 4 3 2 3 3 2 3 3 1 2 1 2 3 3 3 3 3 3 3 4 2 4 5 11 3 7 5 6 5 5 6 7 6 6 6 7 6 7 7 7 8 8 10 8 11 11 9 8 8 8 8 9 9 9 9 8 8 8 8 9 8 8 8 8 8 8 9 8 8 7 5 5 5 5 5 5 5 4 5
3 3 3 3 3 3 3 4 3 3 3 3 2 2 1 1 3 3 3 3 3 3 3 3 3 3 4 4 3 5 6 5 5 6 6 6 6 7 7 7 7 7 7 7 7 7 7 8 9 9 11 10 8 8 8 7 8 8 9 10 9 10 9 7 8 8 8 8 8 8 8 9 9 8 8 8 7 4 4 4 4 5 5 2 6
5 5 5 3 5 4 4 2 3 1 2 4 5 5 3 3 2 3 3 3 3 3 3 3 4 4 4 4 4 5 5 5 5 5 6 6 6 6 7 7 7 7 7 7 7 7 8 9 9 10 11 9 8 8 8 9 8 8 9 10 9 9 9 9 8 8 8 8 8 7 8 8 7 7 7 8 9 10 10 9 8 9 12 11 10
2 3 2 5 3 3 4 3 1 1 2 3 3 3 3 3 2 2 3 3 3 3 3 3 4 4 4 4 5 4 6 5 5 5 5 5 6 6 6 7 7 7 7 7 7 7 7 8 9 11 11 9 9 9 10 11 10 9 10 9 9 8 7 7 7 7 6 6 6 6 7 7 8 8 10 8 8 9 9 10 10 10 11 11 11
3 3 4 4 4 3 3 2 1 1 2 2 3 2 2 2 2 2 3 2 3 3 3 4 3 4 4 5 5 4 4 4 4 5 4 4 4 5 6 6 7 7 7 7 7 8 8 9 9 10 10 9 10 11 12 12 11 9 10 9 9 9 7 8 8 7 6 5 5 5 7 7 7 7 9 9 8 9 10 10 10 11 12 11 10
2 3 1 2 5 5 4 4 3 3 2 3 2 2 2 2 2 3 3 2 3 3 3 3 3 3 4 5 4 4 4 4 4 3 3 4 5 5 5 6 6 7 6 7 7 8 8 8 8 9 10 9 10 10 12 13 12 12 11 10 10 11 13 12 9 8 7 6 5 7 7 8 8 8 9 10 9 8 10 10 10 10 10 10 10
5 5 4 2 3 3 3 2 2 2 2 2 3 2 2 2 3 2 3 3 3 3 3 3 3 3 4 4 4 4 4 4 4 4 4 5 4 5 6 6 6 7 7 7 7 8 8 8 7 8 9 8 9 9 10 12 13 12 12 11 14 19 17 17 11 9 13 7 6 7 7 8 9 10 10 10 10 9 9 9 10 10 9 9 10
3 3 3 4 3 3 3 3 2 2 2 1 2 2 2 2 3 3 3 3 3 3 3 3 3 4 4 4 4 5 6 5 5 5 5 6 6 5 6 6 6 7 7 7 7 7 7 8 7 8 8 8 8 8 7 9 11 10 10 13 19 20 20 18 17 17 13 8 7 7 8 9 9 10 10 10 10 11 11 10 10 10 10 10 10
3 3 3 3 3 3 3 3 2 2 3 2 3 2 2 3 3 3 3 3 3 3 3 3 3 4 4 4 5 5 5 4 4 5 5 6 6 6 6 6 7 6 6 7 7 7 7 8 8 8 8 8 8 8 8 8 8 9 12 16 17 18 19 17 13 16 19 13 10 10 10 11 10 10 8 9 10 12 13 13 12 11 11 10 10
Wind_Direction
137 127 120 117 128 140 139 135 146 172 200 244 93 83 184 63 65 65 59 56 39 30 51 79 47 9 3 20 16 6 34 14 349 3 11 22 354 318 292 7 6 351 333 300 302 308 307 343 344 329 315 316 315 301 299 300 295 295 324 357 327 327 306 180 207 243 228 282 300 291 301 323 316 346 314 303 321 344 343 338 340 329 329 318 313
114 121 129 133 166 151 133 134 115 111 205 151 134 202 89 74 66 56 67 78 52 55 3 36 40 29 30 23 2 13 16 347 7 8 357 355 340 341 356 357 348 330 307 323 333 335 1 7 347 326 316 303 323 333 332 326 313 323 319 323 311 314 321 301 283 266 273 252 273 294 297 295 285 272 305 352 336 334 325 323 311 309 294 306 292
126 143 149 155 111 84 86 90 138 195 233 221 160 117 70 63 43 54 60 93 56 33 49 50 37 30 23 12 333 24 358 360 7 360 21 5 360 1 351 356 335 335 340 343 341 358 353 346 335 330 328 335 332 323 325 319 318 306 303 315 320 305 299 302 272 254 261 255 254 289 284 266 276 357 355 328 320 313 306 295 297 301 303 294 294
145 143 141 107 106 112 107 132 147 212 344 47 40 51 73 69 85 108 56 23 27 62 44 42 42 56 24 9 360 2 15 16 357 31 13 17 8 1 358 348 345 335 334 339 346 348 352 341 333 337 339 330 325 316 302 315 323 339 339 331 332 323 326 334 358 342 335 320 334 312 321 326 336 340 328 309 301 293 274 289 286 284 290 290 288
140 131 108 111 120 120 126 129 151 123 89 64 72 84 94 85 54 41 45 43 24 49 50 43 54 31 27 12 349 6 20 358 19 25 36 24 13 0 353 353 343 338 337 352 343 348 343 336 335 344 338 326 323 319 331 344 343 333 328 336 334 332 334 336 333 345 340 333 329 330 331 313 311 312 305 296 287 273 275 273 273 282 276 275 274
120 115 122 129 125 130 132 134 137 126 110 104 90 61 54 47 49 40 54 25 44 53 36 36 2 19 330 19 338 29 11 352 51 51 42 28 17 7 352 338 337 336 333 330 331 328 334 330 340 343 332 328 321 327 341 341 337 335 333 334 337 339 342 336 336 334 337 332 328 320 315 302 304 304 301 281 281 284 292 291 295 298 312 312 303
132 130 137 126 131 127 138 152 132 86 63 74 87 64 55 49 57 47 33 33 35 22 76 99 256 348 341 349 23 4 357 355 81 68 50 35 26 10 344 335 335 336 325 328 325 320 327 349 333 323 310 306 314 332 331 327 327 325 328 328 330 338 333 334 334 336 338 333 328 318 315 322 328 312 305 300 295 293 293 310 306 316 309 305 300
134 143 131 130 133 153 135 111 93 83 79 70 53 70 85 70 49 32 35 33 20 10 18 22 8 338 338 38 19 358 305 90 96 89 69 54 25 356 1 332 329 327 329 315 306 321 331 316 295 288 295 296 305 294 304 304 314 312 311 316 328 324 325 324 329 325 323 319 311 312 312 309 303 289 291 298 301 300 299 298 290 293 294 291 288
147 131 127 137 139 104 107 120 103 89 86 88 91 78 69 65 45 37 9 15 12 358 15 351 5 334 15 33 2 331 300 109 104 73 54 26 27 345 354 334 322 322 315 311 316 309 297 302 316 312 303 308 315 320 309 306 290 283 278 281 302 301 296 298 305 313 312 316 316 312 305 301 294 291 290 286 277 277 279 271 270 274 283 286 290
139 133 134 133 121 123 126 118 113 123 113 89 77 73 61 74 68 16 331 4 10 335 331 341 313 321 5 32 9 303 315 98 85 68 63 26 13 352 337 324 317 299 302 303 298 295 289 294 298 312 314 312 315 315 312 308 305 299 294 294 286 276 273 283 290 294 299 299 296 302 299 292 296 297 294 290 292 290 278 267 272 276 283 285 289
139 138 138 124 128 127 122 114 131 135 130 97 72 76 78 75 90 113 110 338 349 297 284 285 258 152 209 191 328 317 54 95 87 82 65 30 18 351 327 313 308 314 302 289 286 300 317 324 319 307 313 314 307 302 301 296 290 289 288 283 280 276 270 275 270 267 276 276 280 279 282 291 294 301 304 305 298 297 309 323 314 306 291 296 291
143 132 128 134 129 142 134 138 146 130 114 98 86 92 101 89 109 168 340 182 257 271 285 276 276 262 18 31 10 326 82 93 97 85 60 41 7 341 318 313 315 303 297 298 311 316 312 303 304 320 308 305 296 292 298 306 306 301 299 299 301 301 304 295 278 277 271 278 276 274 284 282 283 282 285 294 308 318 314 309 300 295 288 279 280
145 142 137 145 145 146 145 165 127 117 114 64 64 90 80 109 232 182 143 277 265 266 260 251 258 14 18 345 350 350 101 112 113 96 67 26 353 338 315 304 293 288 293 307 306 304 308 325 330 321 315 309 309 309 306 311 322 329 325 319 314 306 305 311 308 291 287 277 279 275 266 271 279 282 286 290 297 294 301 298 299 300 308 300 294
153 142 142 139 159 138 152 156 120 123 93 107 303 76 296 331 239 110 232 162 225 279 262 247 125 234 283 359 327 69 112 120 104 98 60 342 340 321 302 304 305 311 315 308 326 333 337 327 318 305 302 302 308 350 5 348 339 324 311 302 294 294 294 284 283 285 284 280 277 282 287 289 281 282 283 287 291 290 300 295 303 304 300 294 301
151 149 143 146 145 155 141 122 77 34 54 185 165 226 210 223 13 34 318 180 213 233 249 116 254 15 33 25 350 66 112 113 110 107 54 345 336 330 331 332 325 321 329 337 334 329 317 313 303 305 314 326 29 19 9 351 334 324 315 309 309 304 292 281 277 282 287 279 285 282 287 291 294 298 301 299 290 280 270 272 277 279 282 284 277
158 133 138 148 160 146 139 155 97 232 213 229 299 259 70 29 58 240 141 223 246 267 281 352 29 48 29 1 4 63 119 111 103 92 39 359 4 353 336 334 330 327 327 324 321 316 320 321 326 322 325 332 43 30 13 1 348 330 320 315 309 304 298 300 304 294 275 275 281 284 287 289 292 290 289 289 288 286 284 283 272 269 279 286 283
153 139 149 159 146 163 155 130 187 55 331 300 254 21 43 346 109 192 232 291 314 327 14 355 336 41 26 14 40 1 123 140 116 95 48 28 17 357 346 331 328 327 321 324 327 325 319 316 313 308 307 58 46 38 13 2 338 330 314 308 303 300 299 301 294 292 292 288 281 283 287 289 289 287 283 278 276 276 282 280 271 267 267 274 276
156 153 151 148 140 167 110 90 113 124 112 247 3 46 23 49 236 184 249 228 99 359 244 282 47 24 27 26 30 328 111 146 130 154 93 49 26 12 343 332 322 317 325 328 326 321 315 310 303 303 59 84 50 32 13 350 331 315 309 306 302 297 296 299 308 311 312 305 296 289 289 291 293 290 285 279 274 277 268 263 261 262 263 262 270
151 148 139 155 142 138 95 70 244 141 213 33 78 162 199 173 168 357 60 274 242 69 6 19 34 19 35 22 343 328 73 141 176 194 94 69 37 13 348 329 331 336 339 328 320 315 310 316 341 78 74 107 39 6 341 343 313 314 313 305 298 298 303 329 328 319 314 308 301 302 298 296 293 291 291 292 285 273 255 257 259 249 257 258 265
126 115 129 144 139 119 87 45 165 63 71 119 187 180 173 144 97 79 315 31 29 16 24 19 11 10 7 8 329 8 339 149 175 188 145 122 37 13 346 343 337 336 330 323 316 313 322 323 341 111 121 197 291 321 330 332 316 301 316 307 301 299 317 320 311 307 303 301 299 295 288 281 275 275 274 275 278 267 239 237 246 244 246 256 264
117 131 138 138 135 118 137 182 87 109 193 151 131 110 34 105 117 50 25 32 14 27 24 358 356 337 9 317 347 350 339 338 146 174 172 157 80 10 351 347 338 331 323 317 318 318 318 323 315 312 310 320 331 331 327 322 315 307 289 279 277 292 304 297 293 301 299 294 288 287 281 283 281 276 270 268 269 271 244 227 235 235 232 243 253
151 139 109 120 88 79 99 82 118 135 142 128 120 125 85 27 35 47 22 24 8 20 22 325 261 302 276 345 337 348 327 336 42 180 184 163 256 309 344 345 343 321 320 315 314 313 310 306 313 308 313 325 324 320 313 308 306 296 269 261 264 273 277 276 284 282 277 280 282 288 291 292 294 289 284 277 272 270 261 242 227 229 237 240 249
92 85 102 97 103 121 132 144 147 125 99 87 80 72 56 49 57 39 18 28 13 9 354 304 272 277 234 258 232 316 347 354 27 321 145 157 231 341 349 327 331 318 319 316 310 308 305 305 307 320 327 317 310 307 305 299 294 273 270 267 265 266 270 270 264 274 278 279 281 280 278 279 281 285 282 284 285 288 302 290 276 269 252 248 249
120 117 106 119 141 148 126 103 93 99 84 91 56 58 61 48 74 38 251 143 241 275 275 258 260 263 287 240 53 0 18 3 322 25 105 42 10 7 356 346 332 324 314 305 309 306 309 314 314 314 308 301 296 294 290 288 279 280 280 277 273 272 258 259 260 257 261 268 274 274 272 268 271 276 275 276 277 279 278 281 281 271 267 268 265
133 132 128 131 115 120 136 127 78 91 149 110 108 131 135 126 124 246 264 198 158 262 285 332 349 353 31 30 23 15 5 340 30 42 18 13 359 356 345 337 329 330 324 312 309 310 311 310 309 305 301 297 291 283 275 268 265 266 267 267 270 263 257 252 263 269 266 269 269 272 277 282 280 278 292 306 296 282 274 268 266 268 267 265 264
143 130 140 149 153 144 144 140 142 151 109 98 73 51 209 144 138 216 257 59 43 16 350 21 342 16 32 10 17 357 349 347 54 21 14 351 352 342 336 329 330 328 319 312 310 316 313 310 304 299 295 293 289 281 273 268 265 273 277 276 268 260 249 256 269 288 284 285 292 298 299 298 300 316 317 304 297 288 282 276 274 276 279 284 294
113 136 176 167 170 167 181 144 171 153 161 146 149 122 49 39 62 43 48 25 18 3 1 358 9 14 11 359 1 350 352 15 45 9 1 349 337 334 330 329 326 326 322 315 323 319 312 307 300 295 286 281 279 275 271 276 283 281 257 244 244 274 288 277 270 282 294 297 295 301 300 303 310 310 304 304 295 293 284 286 280 269 275 272 269
153 168 140 93 75 51 65 22 35 85 64 49 43 61 45 39 60 54 35 26 12 9 6 5 20 8 356 358 1 4 350 8 21 2 340 336 327 320 321 325 326 316 314 331 331 316 305 298 296 300 298 292 283 340 16 353 310 310 322 342 338 327 322 319 318 312 314 311 314 318 315 314 308 305 302 298 293 292 298 290 281 282 271 278 269
131 106 106 125 135 143 108 70 55 94 99 75 80 57 54 67 86 94 88 70 42 44 10 22 25 13 355 16 20 354 354 356 348 332 315 307 297 307 320 315 316 320 323 337 322 305 301 296 303 296 332 356 5 0 357 354 349 345 343 348 345 343 340 338 331 333 334 326 315 315 317 320 309 310 311 310 306 302 299 292 288 292 290 276 275
160 148 131 115 120 108 92 82 46 15 103 128 127 98 48 53 45 96 120 118 95 15 119 62 26 25 6 25 38 2 350 340 315 324 320 322 322 316 304 299 298 300 310 305 287 275 283 289 302 350 359 2 354 347 344 344 342 339 336 339 336 335 335 332 337 340 328 318 313 319 319 317 312 311 312 307 308 308 309 307 301 300 291 285 283
74 94 77 62 47 70 87 94 85 52 36 43 63 128 164 64 44 30 42 160 166 173 92 101 83 293 313 354 20 126 33 318 327 325 325 323 320 318 320 322 320 318 321 326 311 304 300 324 352 350 350 344 345 344 342 336 341 343 340 340 339 339 340 340 343 334 328 327 327 320 310 305 304 305 306 307 306 306 304 295 289 288 289 296 296
55 73 86 81 56 69 76 64 87 105 94 84 98 288 76 139 223 353 13 82 178 163 138 181 208 232 287 302 329 337 330 330 322 322 317 316 314 316 319 324 320 316 318 256 271 287 329 350 344 344 345 346 346 348 352 350 347 345 341 342 341 342 340 341 336 331 335 336 335 328 327 330 328 331 323 317 314 306 307 307 307 302 299 301 295
96 88 82 79 74 73 88 79 54 46 54 72 51 342 48 33 74 176 205 270 262 236 205 236 245 253 273 297 293 255 269 287 301 305 306 304 308 313 330 317 314 312 323 297 323 346 350 343 345 356 358 353 356 357 353 350 346 342 342 339 337 335 336 332 327 335 337 335 333 333 335 334 333 328 328 333 333 330 332 327 326 320 312 307 299
69 74 82 92 93 90 75 79 91 96 93 41 357 342 61 45 308 348 78 171 232 266 223 231 245 256 265 265 275 279 283 287 293 298 297 300 303 324 327 305 293 289 214 318 352 348 347 343 3 14 1 355 354 350 348 343 340 335 331 334 328 328 328 329 331 335 332 333 333 329 327 325 323 322 322 320 316 316 317 323 329 331 331 331 323
92 99 101 103 82 79 84 85 77 74 54 34 354 22 27 324 13 22 35 10 25 11 12 210 228 205 219 258 278 281 289 296 297 295 294 298 312 331 313 314 336 357 318 346 357 355 351 12 13 2 352 346 342 333 331 335 335 333 329 325 324 324 326 327 328 324 323 323 319 316 314 313 311 307 306 309 312 312 313 315 318 319 314 319 326
125 120 110 95 88 91 89 80 77 92 32 265 32 28 333 26 30 8 17 17 28 14 360 9 43 173 204 243 276 304 309 314 309 312 299 304 309 344 336 342 346 350 349 355 5 9 15 17 357 337 331 328 320 323 321 325 330 331 329 325 325 327 326 328 326 324 323 319 311 311 310 309 306 304 301 298 301 303 303 305 305 299 300 309 315
126 118 111 109 110 112 119 124 145 162 172 300 72 288 43 27 32 15 22 15 33 9 356 22 45 104 146 18 3 337 335 324 315 310 300 308 299 262 340 347 340 346 352 2 9 16 10 347 325 325 323 321 319 318 325 323 335 333 332 330 325 324 327 321 318 321 319 315 312 310 311 310 309 305 302 303 302 307 306 305 301 303 305 317 320
67 83 85 98 126 120 150 179 148 158 239 253 133 323 61 19 33 17 11 24 15 19 347 26 22 72 37 13 354 349 324 304 301 308 3 34 7 14 339 346 342 2 356 10 9 2 345 328 324 323 323 320 326 331 336 353 6 344 338 332 329 327 320 324 324 323 316 312 312 311 311 310 311 309 307 299 297 300 302 305 308 308 309 308 303
85 77 80 63 332 269 146 80 84 99 57 354 56 5 63 28 31 359 22 34 2 13 334 30 21 75 49 8 344 331 335 319 358 14 23 13 0 355 340 340 3 21 355 5 358 350 338 336 334 332 331 332 340 349 358 30 15 350 337 332 327 325 327 332 325 324 320 316 315 314 310 306 305 305 304 305 300 298 293 293 292 291 295 297 296
105 114 68 332 280 95 76 136 97 56 63 25 26 10 61 22 30 4 26 26 7 8 341 19 44 85 66 17 343 327 339 324 358 34 21 3 353 343 339 345 16 18 350 351 2 349 339 340 344 339 340 351 358 3 27 15 355 345 336 334 332 327 329 327 325 320 318 316 312 313 310 308 304 306 303 297 294 285 285 289 293 282 276 281 281
130 116 138 180 256 294 152 117 86 53 53 46 35 29 37 13 32 29 7 30 18 354 357 21 77 112 112 241 312 306 318 313 37 26 13 352 337 340 329 4 24 4 344 360 358 338 337 348 346 339 358 4 3 21 25 7 350 342 335 336 333 334 333 332 327 324 323 323 320 316 309 305 303 296 290 288 292 295 290 290 285 275 278 280 279
144 148 156 168 173 220 176 79 103 110 343 68 68 39 14 357 10 30 346 50 23 348 5 27 82 110 172 243 267 300 311 23 49 24 11 344 331 321 342 15 14 0 338 354 356 345 352 352 344 351 17 6 17 24 9 359 352 341 336 332 336 340 336 330 328 325 326 321 318 312 307 307 306 306 299 294 285 282 289 286 275 273 271 275 276
119 121 151 158 124 37 72 104 68 86 71 50 81 94 24 299 11 49 7 55 24 350 25 21 58 26 158 226 282 294 2 41 27 24 6 340 332 340 4 4 4 355 346 351 4 354 350 355 348 9 18 7 20 15 6 354 347 343 341 340 340 338 338 331 330 331 327 318 311 306 305 303 312 309 307 304 280 266 271 279 279 288 284 267 254
138 128 125 88 78 84 44 20 81 83 109 120 144 175 16 44 71 40 27 38 28 350 23 14 45 19 37 349 316 337 45 35 27 12 7 350 351 347 350 352 357 349 350 352 4 357 350 354 356 25 18 10 15 7 358 356 350 350 350 348 346 342 335 327 328 325 319 311 304 305 314 314 314 321 323 328 340 341 289 282 287 293 288 346 60
180 172 141 142 132 132 108 65 69 94 231 184 199 212 153 87 48 63 45 26 19 0 9 25 38 33 31 343 0 13 36 52 35 14 7 2 351 347 346 347 349 345 343 351 3 358 358 357 14 26 14 9 9 3 356 352 2 5 3 353 347 341 334 328 317 310 303 299 301 301 312 322 335 343 355 9 17 24 31 35 36 48 53 53 55
98 73 86 105 104 109 115 123 146 214 3 42 24 57 69 70 46 72 59 40 26 359 15 29 34 45 30 360 10 15 48 44 29 18 14 1 354 348 347 349 343 343 347 350 354 358 358 7 28 27 15 6 7 3 358 355 9 16 3 359 349 337 322 312 307 305 293 293 299 301 324 360 7 3 23 18 28 40 40 41 48 52 55 58 59
119 146 131 126 109 87 86 96 105 85 61 42 29 81 54 75 72 52 100 97 57 12 25 37 31 42 34 13 11 10 52 46 32 19 12 5 357 349 352 351 346 349 350 356 354 358 357 21 38 27 17 9 7 10 1 358 8 16 10 357 354 346 332 326 316 317 315 303 296 334 9 13 12 7 12 19 37 49 54 50 51 59 62 60 59
121 90 60 118 139 144 149 169 149 183 155 122 69 43 67 45 69 74 53 41 53 31 35 35 35 41 42 25 3 14 35 17 33 28 14 16 6 352 353 355 355 356 351 358 356 355 353 28 43 31 17 12 10 15 8 2 8 13 12 3 357 348 345 345 345 346 332 317 2 20 21 22 22 23 28 32 36 42 55 58 57 59 61 64 65
149 139 125 71 57 78 106 120 113 79 68 120 139 106 63 86 73 57 57 43 55 48 34 35 34 41 52 32 5 14 31 28 11 10 26 20 9 358 1 358 1 359 356 0 358 355 359 28 45 36 21 14 14 16 12 8 11 15 12 5 357 354 356 2 1 5 360 354 23 24 34 39 37 36 36 37 37 41 52 60 63 61 62 64 66
68 89 96 111 107 83 38 29 47 91 131 86 74 101 123 92 82 60 64 56 54 44 36 46 38 38 50 34 12 17 27 22 359 18 25 19 10 1 6 0 4 357 2 3 357 355 12 20 35 38 23 19 14 15 12 4 4 0 8 4 360 2 4 8 11 15 17 358 6 42 47 51 50 51 47 45 44 48 50 50 54 62 61 61 63
106 109 85 87 103 123 129 128 99 71 11 17 90 78 65 76 82 71 50 60 45 47 53 47 45 35 42 44 18 23 37 7 357 26 32 17 10 7 11 3 4 356 2 357 359 12 15 21 30 31 20 20 19 13 11 0 350 346 347 2 6 4 6 15 21 24 25 23 28 32 40 40 45 48 50 51 56 56 58 59 61 62 64 61 62